Wind_Speed
32 30 27 25 24 22 21 23 23 19 17 15 16 17 17 17 17 17 17 16 16 16 18 25 25 25 23 20 21 20 20 19 22 23 21 16 15 15 13 10 9 8 6
34 34 31 27 23 22 20 19 21 20 19 19 20 20 19 18 20 19 19 19 19 17 24 22 31 25 23 22 21 22 22 20 21 23 22 20 18 16 14 11 9 8 7
38 35 30 23 21 21 20 19 18 17 15 15 16 16 17 15 15 16 16 21 30 21 28 44 38 14 22 18 20 21 19 19 22 24 24 22 20 18 17 15 11 11 10
34 31 23 22 20 19 16 14 14 16 18 15 12 12 12 13 16 20 16 11 24 24 21 28 22 22 21 19 21 22 19 20 21 24 25 27 24 20 20 20 16 13 11
27 26 27 19 15 10 9 12 14 14 7 8 6 7 10 12 16 14 13 12 12 8 5 10 17 15 18 20 23 23 23 23 24 25 27 29 29 27 25 22 19 14 14
19 24 20 9 5 23 23 25 25 21 18 16 13 9 11 12 14 13 14 13 12 13 13 16 20 19 20 22 21 22 24 26 25 27 30 32 33 30 28 25 22 21 19
4 4 4 11 24 30 27 24 14 15 15 13 12 14 15 17 16 18 18 19 19 18 21 24 26 25 25 25 25 25 26 27 27 26 27 28 27 27 27 24 25 25 24
5 7 7 8 7 9 7 10 12 11 14 14 14 15 16 16 16 16 19 22 23 23 24 25 27 27 24 23 24 25 25 24 24 25 25 26 26 28 24 22 22 24 26
9 8 7 4 1 1 4 6 9 12 14 15 16 17 18 18 18 17 19 20 20 20 21 20 21 22 19 18 17 18 19 20 20 24 27 28 26 25 23 22 24 24 28
3 1 4 6 7 8 8 9 11 13 14 14 16 17 17 16 16 15 15 15 16 17 17 18 19 20 17 18 17 18 21 21 24 26 25 23 23 22 23 22 27 26 28
6 8 10 11 11 11 11 12 13 13 14 14 16 17 17 16 15 13 14 16 18 19 18 18 17 17 20 17 18 19 19 19 17 20 19 19 19 19 20 23 25 25 26
12 13 15 16 17 17 17 16 15 16 18 19 20 22 22 22 22 20 19 20 22 22 21 20 19 17 18 16 17 17 16 14 14 15 15 13 16 17 22 21 24 20 19
14 17 18 18 18 18 20 21 22 22 23 25 25 29 27 24 24 21 19 17 19 26 27 23 21 19 18 18 18 18 20 18 17 18 20 19 15 15 18 22 27 22 21
18 21 23 24 25 25 24 24 25 26 26 27 28 28 27 26 24 19 17 18 20 21 21 23 22 20 19 20 20 23 27 26 26 25 24 26 24 21 19 19 24 28 27
23 25 26 26 27 26 23 21 21 19 20 24 25 28 29 29 25 20 19 21 22 23 25 24 24 24 24 22 20 21 25 30 33 30 29 28 28 25 21 18 20 28 33
20 21 22 22 20 20 19 18 13 17 21 22 24 27 27 24 23 22 21 23 24 26 28 27 26 25 25 25 25 24 22 24 26 28 29 28 26 23 22 21 25 24 33
9 13 15 16 16 18 20 21 23 20 18 15 15 16 17 20 22 24 25 26 26 27 28 28 29 29 28 27 27 26 25 22 22 24 25 26 28 24 20 21 26 26 31
9 14 19 18 17 16 19 21 21 21 22 20 16 20 21 23 24 23 24 26 26 25 27 28 29 28 28 28 27 26 26 24 22 24 25 22 20 19 21 22 24 29 25
10 11 15 16 16 15 18 20 21 21 20 20 21 22 24 26 29 28 26 27 29 30 29 28 27 27 27 28 26 25 25 26 25 25 25 21 20 19 19 20 23 28 27
12 13 14 16 17 18 17 19 21 21 22 20 22 24 28 33 32 31 29 25 24 23 25 25 26 28 29 29 27 26 24 25 26 25 21 20 20 20 20 21 22 27 32
12 15 17 17 18 20 19 18 18 19 20 20 22 25 30 28 29 29 26 27 26 26 26 24 25 29 30 28 27 27 26 25 25 27 26 24 23 24 22 21 21 21 24
14 16 17 16 16 17 18 17 15 16 17 20 24 30 33 25 25 27 28 28 29 26 23 22 24 24 24 26 24 26 26 26 23 22 22 22 21 21 18 19 22 21 22
19 20 19 18 18 18 18 19 21 24 28 29 29 34 33 25 24 24 25 27 28 27 26 21 23 24 17 20 20 21 20 24 24 23 21 21 20 18 17 18 21 19 21
21 20 20 20 19 22 23 24 25 27 30 29 33 30 25 24 22 24 26 26 26 23 22 22 26 27 28 30 27 27 24 24 25 25 26 26 26 25 23 21 22 23 21
20 20 19 21 19 21 22 22 25 30 29 28 31 29 23 22 20 23 26 25 21 20 20 20 20 22 25 25 25 26 26 26 27 28 31 31 30 29 31 31 28 25 23
20 18 20 18 18 20 22 22 22 25 24 25 24 22 20 19 19 19 21 21 18 14 12 13 14 16 18 17 17 18 20 20 20 21 24 29 31 30 31 34 32 28 26
Wind_Direction
240 239 238 236 234 232 236 237 238 239 236 241 246 254 261 264 265 267 267 271 279 279 288 288 280 280 274 272 266 267 270 281 288 297 306 294 302 301 297 304 294 288 307
244 243 243 241 237 233 232 231 234 234 242 250 258 266 270 272 272 268 266 272 270 279 333 332 289 271 271 273 271 271 272 277 288 295 294 294 296 293 289 291 288 279 281
250 248 248 239 232 230 230 233 241 246 252 260 270 277 283 277 275 271 283 292 276 260 320 320 339 279 280 275 280 280 280 278 283 287 293 291 285 289 284 276 281 275 272
244 238 228 209 216 218 224 231 245 259 257 253 247 249 243 253 274 283 300 294 278 271 282 268 274 265 273 273 275 276 278 278 279 283 288 287 284 282 273 270 269 274 271
235 223 191 147 71 41 324 281 265 247 252 278 271 263 279 284 285 289 300 283 276 284 250 240 275 283 278 276 272 272 275 276 276 278 284 281 281 277 277 280 269 262 268
183 154 146 79 15 248 254 256 256 269 267 272 278 272 283 274 279 288 291 289 281 281 269 263 266 271 269 273 273 272 271 270 270 271 275 278 282 284 285 276 267 255 260
15 147 248 270 215 221 234 237 265 265 280 290 281 267 263 277 280 282 285 286 287 288 284 283 281 280 281 279 274 269 268 269 270 273 280 280 284 282 291 275 263 263 264
147 133 138 152 154 186 220 241 265 275 279 282 285 286 283 288 293 285 283 285 286 287 287 286 286 286 282 279 273 272 271 273 275 272 273 274 277 281 280 270 267 269 260
173 163 151 154 143 302 297 286 280 280 282 290 293 294 292 293 292 295 292 289 290 291 292 293 292 288 285 275 272 274 279 282 285 277 273 266 265 274 272 262 253 254 247
187 323 333 331 333 325 308 298 291 297 298 302 303 305 304 301 300 300 296 291 289 296 301 302 293 286 286 268 265 279 289 297 298 292 278 264 266 265 268 265 257 259 249
319 329 326 327 324 316 313 313 311 303 300 306 309 304 303 305 303 301 294 291 298 300 305 312 319 314 289 274 260 271 285 299 301 300 303 276 264 265 264 267 261 252 250
314 315 316 318 318 317 316 312 309 308 311 316 314 307 311 313 311 306 290 285 289 293 295 300 307 309 305 290 267 263 270 288 307 321 323 309 290 276 280 258 260 246 239
311 313 314 313 309 308 309 308 308 309 309 307 305 305 308 313 315 314 315 301 301 291 284 291 297 299 297 283 286 280 275 276 288 305 312 317 319 295 284 264 254 234 232
308 311 309 309 309 309 307 307 307 307 303 299 301 301 303 307 316 318 312 303 307 308 304 286 289 297 305 291 281 267 274 281 285 290 298 302 304 303 297 257 265 232 224
308 304 303 305 305 305 305 309 306 304 305 301 299 298 302 305 312 313 311 314 306 302 304 304 302 295 297 298 294 286 270 265 276 284 285 290 293 297 290 267 261 243 226
308 312 315 313 307 304 306 301 291 298 299 297 297 298 299 296 297 298 297 302 302 300 298 300 301 298 294 294 291 289 287 280 275 275 280 282 284 295 287 276 262 256 229
350 357 343 328 320 322 325 321 316 301 314 316 317 313 307 304 298 294 293 293 294 294 295 295 297 297 295 290 287 287 287 279 269 274 284 291 284 279 284 267 269 258 236
354 352 353 351 344 330 328 326 320 316 317 320 315 314 316 316 310 302 296 295 294 291 293 295 295 296 295 295 291 287 283 280 274 275 284 285 279 272 269 269 267 269 245
324 345 353 351 344 329 330 325 321 315 312 313 315 314 316 314 312 312 304 298 294 292 293 291 291 291 288 292 293 289 280 277 277 280 281 274 272 271 275 261 261 262 249
341 335 332 340 341 338 333 326 323 323 317 317 322 323 314 313 312 312 310 308 305 301 302 299 299 295 291 288 289 287 287 280 272 273 276 271 273 272 271 268 258 254 253
332 333 330 331 331 333 327 320 321 315 311 312 318 319 313 307 310 313 309 306 304 304 302 304 301 300 294 290 289 287 284 285 274 273 273 272 272 274 267 263 269 255 251
306 312 318 319 322 330 335 325 321 321 321 319 324 329 326 314 313 311 309 307 306 305 302 298 303 305 300 298 291 288 285 287 271 271 271 266 268 269 258 258 263 256 251
301 302 310 311 305 305 318 325 321 315 310 312 313 321 319 315 312 315 315 312 309 303 300 298 288 293 292 301 293 284 283 281 272 268 265 262 255 256 262 260 260 259 250
301 302 302 307 302 301 306 308 317 317 315 311 309 320 320 314 313 318 320 317 311 306 301 298 289 286 296 286 289 281 282 277 277 270 269 266 264 259 261 265 264 254 258
297 302 303 309 311 313 317 315 311 316 317 315 313 313 317 316 315 323 331 328 318 311 309 304 302 298 298 294 287 284 280 273 269 270 269 271 268 264 260 262 265 261 249
289 297 304 305 312 313 312 314 317 317 324 323 320 317 316 316 319 326 337 343 342 342 350 350 344 337 332 324 310 297 288 281 276 271 268 269 269 263 258 257 255 254 247
Height
1517 1522 1524 1527 1531 1535 1537 1538 1539 1539 1540 1541 1541 1541 1540 1540 1540 1538 1537 1537 1537 1538 1538 1542 1540 1536 1535 1534 1532 1530 1527 1526 1524 1524 1522 1521 1519 1518 1518 1518 1517 1516 1515
1514 1518 1521 1526 1532 1533 1534 1536 1538 1537 1537 1537 1538 1538 1537 1535 1533 1533 1533 1531 1531 1532 1532 1531 1537 1533 1531 1531 1529 1527 1525 1523 1521 1519 1519 1517 1516 1515 1514 1514 1514 1513 1513
1510 1514 1518 1523 1528 1532 1533 1534 1536 1536 1535 1534 1534 1534 1534 1532 1530 1528 1529 1527 1524 1521 1528 1529 1516 1527 1529 1527 1526 1524 1523 1520 1518 1516 1515 1513 1512 1512 1511 1511 1511 1511 1511
1505 1507 1511 1517 1524 1529 1532 1533 1534 1534 1531 1528 1524 1526 1529 1527 1525 1525 1522 1521 1520 1507 1515 1533 1535 1532 1526 1523 1522 1520 1516 1515 1514 1512 1510 1508 1508 1508 1507 1507 1508 1507 1507
1500 1503 1504 1514 1522 1527 1532 1533 1532 1530 1529 1529 1524 1521 1524 1526 1522 1519 1519 1516 1514 1512 1506 1519 1529 1521 1521 1520 1517 1514 1511 1510 1508 1507 1506 1503 1501 1501 1502 1504 1504 1503 1503
1503 1506 1508 1505 1510 1528 1526 1529 1528 1529 1528 1526 1521 1519 1519 1522 1520 1516 1514 1513 1511 1509 1509 1510 1513 1514 1515 1514 1509 1506 1504 1502 1501 1499 1499 1496 1496 1496 1498 1499 1499 1499 1498
1504 1507 1491 1493 1515 1517 1521 1520 1521 1523 1522 1518 1518 1516 1516 1518 1516 1512 1510 1508 1506 1503 1502 1502 1503 1504 1504 1503 1499 1497 1496 1497 1494 1493 1493 1491 1490 1491 1492 1492 1493 1493 1493
1507 1512 1514 1515 1516 1517 1515 1516 1517 1516 1517 1516 1515 1513 1512 1511 1509 1508 1505 1501 1499 1497 1496 1496 1495 1494 1494 1491 1490 1487 1488 1488 1487 1486 1484 1485 1486 1484 1484 1486 1487 1488 1489
1518 1516 1516 1516 1513 1510 1510 1510 1513 1514 1513 1510 1509 1508 1508 1506 1503 1500 1497 1496 1494 1491 1489 1489 1488 1485 1485 1483 1481 1482 1481 1481 1480 1479 1477 1477 1476 1477 1477 1479 1481 1482 1482
1520 1514 1510 1508 1506 1506 1508 1509 1510 1509 1508 1503 1504 1504 1503 1501 1498 1495 1493 1491 1489 1488 1487 1485 1484 1482 1480 1480 1478 1476 1474 1476 1473 1471 1470 1469 1468 1470 1471 1472 1474 1475 1476
1512 1509 1507 1505 1505 1505 1505 1504 1503 1504 1504 1498 1497 1501 1499 1495 1493 1491 1488 1485 1483 1481 1479 1478 1477 1474 1473 1472 1471 1471 1470 1468 1467 1464 1461 1461 1463 1464 1465 1466 1467 1469 1470
1506 1506 1504 1502 1501 1500 1499 1501 1500 1497 1494 1491 1490 1495 1493 1487 1485 1483 1482 1480 1478 1476 1474 1472 1472 1471 1470 1468 1466 1466 1464 1462 1461 1459 1457 1456 1458 1458 1460 1461 1462 1463 1466
1505 1505 1504 1503 1502 1500 1499 1495 1491 1488 1486 1486 1487 1489 1485 1482 1479 1475 1473 1471 1471 1468 1468 1467 1466 1465 1464 1462 1461 1460 1458 1457 1456 1456 1455 1454 1453 1453 1453 1454 1455 1458 1462
1503 1500 1499 1498 1495 1492 1491 1489 1483 1483 1484 1485 1484 1483 1479 1476 1474 1471 1468 1465 1463 1462 1459 1457 1456 1455 1454 1453 1453 1453 1452 1452 1451 1450 1449 1448 1448 1447 1445 1446 1448 1452 1454
1498 1498 1496 1492 1491 1487 1485 1482 1483 1487 1484 1482 1480 1480 1473 1470 1469 1467 1464 1461 1459 1457 1453 1451 1449 1448 1447 1447 1447 1446 1445 1444 1442 1442 1441 1441 1440 1440 1439 1440 1442 1443 1446
1497 1495 1491 1489 1489 1487 1483 1482 1484 1482 1480 1479 1475 1473 1468 1465 1462 1462 1459 1457 1454 1451 1448 1445 1444 1443 1441 1440 1439 1438 1437 1436 1435 1434 1433 1433 1433 1433 1433 1434 1435 1436 1438
1496 1495 1494 1490 1489 1486 1482 1479 1477 1476 1475 1474 1471 1468 1464 1460 1457 1456 1454 1451 1449 1446 1443 1440 1437 1435 1434 1432 1431 1430 1429 1429 1428 1427 1426 1426 1426 1426 1427 1428 1428 1429 1429
1496 1494 1490 1489 1486 1485 1483 1481 1477 1474 1471 1469 1469 1465 1461 1457 1454 1452 1449 1445 1443 1440 1436 1433 1430 1428 1426 1424 1422 1421 1420 1420 1419 1419 1419 1419 1418 1419 1420 1420 1421 1421 1423
1495 1494 1492 1489 1486 1484 1480 1477 1475 1472 1469 1464 1461 1459 1457 1453 1449 1446 1443 1439 1435 1431 1428 1425 1423 1420 1418 1416 1414 1413 1412 1412 1411 1411 1410 1411 1412 1412 1412 1413 1415 1416 1415
1494 1493 1491 1485 1481 1478 1477 1475 1471 1468 1464 1461 1457 1455 1451 1446 1442 1438 1434 1431 1427 1424 1421 1418 1416 1413 1411 1409 1407 1406 1404 1403 1403 1403 1403 1404 1404 1405 1405 1406 1407 1408 1409
1489 1487 1484 1481 1478 1474 1472 1469 1467 1465 1462 1459 1456 1452 1447 1441 1435 1431 1427 1424 1421 1417 1414 1411 1409 1406 1402 1400 1399 1398 1396 1395 1395 1395 1396 1396 1397 1398 1399 1399 1399 1399 1399
1486 1484 1482 1477 1476 1474 1469 1467 1464 1462 1459 1455 1450 1445 1440 1434 1430 1426 1422 1417 1412 1409 1406 1403 1400 1397 1394 1392 1391 1390 1388 1387 1387 1387 1387 1388 1389 1391 1391 1393 1392 1393 1394
1481 1478 1475 1473 1472 1469 1466 1464 1461 1457 1454 1449 1444 1438 1433 1428 1423 1418 1414 1410 1405 1401 1398 1395 1392 1390 1388 1385 1384 1382 1380 1380 1380 1380 1380 1381 1383 1384 1385 1385 1384 1385 1386
1475 1472 1470 1468 1466 1464 1461 1458 1456 1452 1447 1442 1437 1431 1425 1421 1416 1412 1408 1402 1397 1393 1390 1386 1385 1384 1381 1378 1376 1375 1374 1373 1372 1372 1373 1374 1375 1377 1378 1377 1376 1377 1378
1470 1468 1465 1462 1460 1457 1455 1452 1449 1445 1440 1435 1429 1424 1419 1415 1411 1407 1402 1395 1390 1386 1383 1380 1378 1376 1374 1371 1368 1366 1365 1364 1363 1363 1364 1364 1365 1367 1368 1368 1368 1369 1370
1463 1462 1460 1457 1455 1452 1449 1446 1443 1439 1434 1429 1423 1418 1414 1410 1406 1402 1397 1392 1386 1382 1380 1378 1375 1371 1368 1364 1361 1358 1357 1356 1355 1354 1354 1353 1354 1356 1357 1358 1360 1362 1363